User: anonymous   Login
Location: Plymouth
(43.7570°N, 71.6890°W)
Time: 21:58:39
(UTC-04:00)
Language:

Meteor 1-28 Rocket - Orbit

View from above orbital plane
View from above orbital plane
View from above satellite
View from above satellite

Ground track
Ground track

The orbit data is extracted from the following two-line orbital elements,

1 10114U 77057B   17177.91213047 +.00000233 +00000-0 +15057-4 0  9993
2 10114 097.2011 359.7177 0012373 287.7004 072.2879 15.16733919184825
Epoch (UTC): 26 June 2017 21:53:28
Eccentricity: 0.0012373
inclination: 97.2011°
perigee height: 507 km
apogee height: 524 km
right ascension of ascending node: 359.7177°
argument of perigee: 287.7004°
revolutions per day: 15.16733919
mean anomaly at epoch: 72.2879°
orbit number at epoch: 18482

The dashed part of the orbit path shows where the satellite is in the earth's shadow,  

DLR